Roseau, MN

11:23 AM CST on December 07, 2016 (GMT -0600)
Roseau Municipal-Billberg

Weather History for KROX - December, 2012

Change the Weather History Date:

Sunday, December 30, 2012

  Actual Average Record
Temperature  
Mean Temperature 10 °F -  
Max Temperature 19 °F 11 °F 37 °F (1949)
Min Temperature -2 °F -8 °F -38 °F (1990)
Degree Days  
Heating Degree Days 56    
Moisture  
Dew Point 6 °F    
Average Humidity 78    
Maximum Humidity 85    
Minimum Humidity 72    
Precipitation  
Precipitation 0.00 in - - ()
Sea Level Pressure  
Sea Level Pressure 29.92 in    
Wind  
Wind Speed 10 mph (WSW)    
Max Wind Speed 16 mph    
Max Gust Speed 24 mph    
Visibility 8 miles    
Events Snow    
Averages and records for this station are not official NWS values.
T = Trace of Precipitation, MM = Missing Value Source: NWS Daily Summary

Daily Weather History Graph

Daily Weather History Graph

Search for Another Location

Airport or City:

Trip Planner

Search our weather history database for the weather conditions in past years. The results will help you decide how hot, cold, wet, or windy it might be!

Date:

Astronomy

Dec. 30, 2012 Rise Set
Actual Time 8:16 AM CST 4:35 PM CST
Civil Twilight 7:39 AM CST 5:12 PM CST
Nautical Twilight 6:58 AM CST 5:52 PM CST
Astronomical Twilight 6:20 AM CST 6:30 PM CST
Moon 7:21 PM CST (12/30) 9:13 AM CST (12/30)
Length of Visible Light 9h 33m
Length of Day
8h 18m
Waning Gibbous, 95% of the Moon is Illuminated
Dec 30
Waning Gibbous
Jan 4
Last Quarter
Jan 11
New
Jan 18
First Quarter
Jan 26
Full

Hourly Weather History & Observations

Time (CST) Temp. Windchill Dew Point Humidity Pressure Visibility Wind Dir Wind Speed Gust Speed Precip Events Conditions
12:15 AM 1.4 °F -9.9 °F -4.0 °F 78% 30.02 in 10.0 mi SSW 5.8 mph - N/A   Overcast
12:54 AM 3.2 °F -11.3 °F -2.2 °F 78% 30.01 in 10.0 mi South 9.2 mph - N/A   Overcast
1:15 AM 3.2 °F -11.3 °F -0.4 °F 85% 30.01 in 10.0 mi SSW 9.2 mph - N/A   Overcast
1:34 AM 3.2 °F -11.3 °F -0.4 °F 85% 30.01 in 10.0 mi South 9.2 mph - N/A   Overcast
1:54 AM 5.0 °F -9.1 °F -0.4 °F 78% 30.00 in 10.0 mi South 9.2 mph - N/A   Overcast
2:15 AM 5.0 °F -9.1 °F -0.4 °F 78% 29.99 in 10.0 mi South 9.2 mph - N/A   Overcast
2:34 AM 6.8 °F -6.9 °F 1.4 °F 79% 30.00 in 10.0 mi South 9.2 mph - N/A   Overcast
2:54 AM 6.8 °F -6.9 °F 1.4 °F 79% 30.00 in 10.0 mi SSW 9.2 mph - N/A   Overcast
3:14 AM 6.8 °F -6.9 °F 1.4 °F 79% 29.99 in 10.0 mi South 9.2 mph - N/A   Overcast
3:34 AM 6.8 °F -8.6 °F 1.4 °F 79% 29.99 in 10.0 mi South 11.5 mph - N/A   Scattered Clouds
3:54 AM 6.8 °F -8.6 °F 1.4 °F 79% 29.98 in 10.0 mi South 11.5 mph - N/A   Mostly Cloudy
4:14 AM 6.8 °F -8.6 °F 3.2 °F 85% 29.98 in 10.0 mi South 11.5 mph - N/A   Overcast
4:34 AM 8.6 °F -7.7 °F 3.2 °F 79% 29.96 in 10.0 mi South 13.8 mph - N/A   Overcast
4:54 AM 8.6 °F -7.7 °F 3.2 °F 79% 29.96 in 10.0 mi South 13.8 mph - N/A   Overcast
5:14 AM 8.6 °F -7.0 °F 3.2 °F 79% 29.94 in 10.0 mi South 12.7 mph - N/A   Mostly Cloudy
5:34 AM 8.6 °F -7.0 °F 3.2 °F 79% 29.93 in 10.0 mi South 12.7 mph - N/A   Scattered Clouds
5:54 AM 8.6 °F -7.7 °F 3.2 °F 79% 29.93 in 10.0 mi South 13.8 mph - N/A   Clear
6:14 AM 10.4 °F -2.4 °F 3.2 °F 73% 29.93 in 10.0 mi South 9.2 mph - N/A   Clear
6:34 AM 10.4 °F -1.5 °F 5.0 °F 79% 29.93 in 10.0 mi SSW 8.1 mph - N/A   Scattered Clouds
6:54 AM 12.2 °F -1.0 °F 6.8 °F 79% 29.92 in 10.0 mi SSW 10.4 mph - N/A   Mostly Cloudy
7:14 AM 12.2 °F -1.8 °F 8.6 °F 85% 29.91 in 10.0 mi SSW 11.5 mph - N/A   Scattered Clouds
7:34 AM 12.2 °F -1.0 °F 8.6 °F 85% 29.91 in 10.0 mi SSW 10.4 mph - N/A   Clear
7:54 AM 14.0 °F -0.2 °F 8.6 °F 79% 29.90 in 10.0 mi SSW 12.7 mph - N/A   Clear
8:14 AM 15.8 °F 2.1 °F 8.6 °F 73% 29.89 in 10.0 mi SSW 12.7 mph - N/A   Scattered Clouds
8:34 AM 15.8 °F 0.9 °F 10.4 °F 79% 29.89 in 10.0 mi South 15.0 mph - N/A   Scattered Clouds
8:54 AM 15.8 °F 2.1 °F 8.6 °F 73% 29.89 in 7.0 mi SSW 12.7 mph - N/A   Mostly Cloudy
9:14 AM 15.8 °F 3.4 °F 10.4 °F 79% 29.90 in 7.0 mi SSW 10.4 mph - N/A   Overcast
9:34 AM 15.8 °F 3.4 °F 10.4 °F 79% 29.90 in 2.5 mi SW 10.4 mph - N/A Snow Light Snow
9:54 AM 15.8 °F 4.2 °F 10.4 °F 79% 29.90 in 2.0 mi SW 9.2 mph - N/A Snow Light Snow
10:14 AM 17.6 °F 7.3 °F 12.2 °F 79% 29.90 in 2.0 mi SW 8.1 mph - N/A Snow Light Snow
10:34 AM 17.6 °F 6.4 °F 12.2 °F 79% 29.90 in 1.8 mi SSW 9.2 mph - N/A Snow Light Snow
10:54 AM 17.6 °F 6.4 °F 12.2 °F 79% 29.89 in 1.0 mi SSW 9.2 mph - N/A Snow Light Snow
11:14 AM 17.6 °F 8.2 °F 12.2 °F 79% 29.88 in 1.2 mi SSW 6.9 mph - N/A Snow Light Snow
11:34 AM 17.6 °F 7.3 °F 12.2 °F 79% 29.87 in 1.8 mi SSW 8.1 mph - N/A Snow Light Snow
11:54 AM 17.6 °F 7.3 °F 12.2 °F 79% 29.86 in 4.0 mi SSW 8.1 mph - N/A Snow Light Snow
12:14 PM 19.4 °F 8.6 °F 12.2 °F 74% 29.85 in 3.0 mi SSW 9.2 mph - N/A Snow Light Snow
12:34 PM 19.4 °F 8.6 °F 12.2 °F 74% 29.84 in 2.0 mi SW 9.2 mph - N/A Snow Light Snow
12:54 PM 19.4 °F 10.4 °F 12.2 °F 74% 29.84 in 7.0 mi SW 6.9 mph - N/A Snow Light Snow
1:14 PM 17.6 °F 8.2 °F 12.2 °F 79% 29.83 in 10.0 mi WSW 6.9 mph - N/A   Mostly Cloudy
1:34 PM 17.6 °F 8.2 °F 12.2 °F 79% 29.83 in 10.0 mi West 6.9 mph - N/A   Mostly Cloudy
1:54 PM 17.6 °F 8.2 °F 12.2 °F 79% 29.83 in 10.0 mi WSW 6.9 mph - N/A   Scattered Clouds
2:14 PM 17.6 °F 6.4 °F 12.2 °F 79% 29.83 in 10.0 mi West 9.2 mph - N/A   Mostly Cloudy
2:34 PM 17.6 °F 7.3 °F 10.4 °F 73% 29.83 in 4.0 mi West 8.1 mph - N/A   Haze
2:54 PM 17.6 °F 8.2 °F 10.4 °F 73% 29.83 in 2.5 mi West 6.9 mph - N/A Snow Light Snow
3:14 PM 17.6 °F 6.4 °F 10.4 °F 73% 29.83 in 1.2 mi West 9.2 mph - N/A Snow Light Snow
3:34 PM 15.8 °F 6.1 °F 10.4 °F 79% 29.83 in 1.8 mi West 6.9 mph - N/A Snow Light Snow
3:54 PM 15.8 °F 5.1 °F 10.4 °F 79% 29.84 in 2.0 mi West 8.1 mph - N/A Snow Light Snow
4:14 PM 15.8 °F 4.2 °F 10.4 °F 79% 29.85 in 7.0 mi West 9.2 mph - N/A Snow Light Snow
4:39 PM 15.8 °F 5.1 °F 10.4 °F 79% 29.86 in 4.0 mi West 8.1 mph - N/A Snow Light Snow
4:59 PM 15.8 °F 4.2 °F 10.4 °F 79% 29.87 in 7.0 mi West 9.2 mph - N/A Snow Light Snow
5:14 PM 15.8 °F 4.2 °F 10.4 °F 79% 29.88 in 10.0 mi WNW 9.2 mph - N/A   Mostly Cloudy
5:34 PM 15.8 °F 0.3 °F 10.4 °F 79% 29.89 in 10.0 mi NNW 16.1 mph - N/A   Mostly Cloudy
5:54 PM 15.8 °F 0.9 °F 8.6 °F 73% 29.90 in 10.0 mi NNW 15.0 mph 24.2 mph N/A   Mostly Cloudy
6:15 PM 15.8 °F 0.9 °F 8.6 °F 73% 29.91 in 10.0 mi NNW 15.0 mph - N/A   Overcast
6:34 PM 15.8 °F 4.2 °F 8.6 °F 73% 29.92 in 5.0 mi NW 9.2 mph - N/A Snow Light Snow
6:54 PM 12.2 °F -1.0 °F 6.8 °F 79% 29.92 in 10.0 mi NW 10.4 mph - N/A   Mostly Cloudy
7:15 PM 12.2 °F 1.7 °F 6.8 °F 79% 29.93 in 10.0 mi WNW 6.9 mph - N/A Snow Light Snow
7:34 PM 14.0 °F 3.9 °F 8.6 °F 79% 29.94 in 10.0 mi WNW 6.9 mph - N/A Snow Light Snow
7:54 PM 12.2 °F 1.7 °F 6.8 °F 79% 29.94 in 10.0 mi West 6.9 mph - N/A   Scattered Clouds
8:14 PM 12.2 °F 1.7 °F 6.8 °F 79% 29.94 in 7.0 mi WNW 6.9 mph - N/A Snow Light Snow
8:34 PM 12.2 °F -1.8 °F 6.8 °F 79% 29.95 in 7.0 mi WNW 11.5 mph - N/A Snow Light Snow
8:54 PM 8.6 °F -7.0 °F 1.4 °F 73% 29.96 in 10.0 mi WNW 12.7 mph - N/A   Scattered Clouds
9:14 PM 6.8 °F -9.3 °F -0.4 °F 72% 29.97 in 10.0 mi WNW 12.7 mph - N/A   Scattered Clouds
9:54 PM 3.2 °F -12.2 °F -2.2 °F 78% 29.99 in 10.0 mi WNW 10.4 mph - N/A   Scattered Clouds
10:14 PM 3.2 °F -12.2 °F -2.2 °F 78% 30.00 in 10.0 mi WNW 10.4 mph - N/A   Mostly Cloudy
10:34 PM 3.2 °F -11.3 °F -2.2 °F 78% 30.01 in 10.0 mi WNW 9.2 mph - N/A   Scattered Clouds
10:54 PM 1.4 °F -13.5 °F -5.8 °F 72% 30.03 in 10.0 mi NW 9.2 mph - N/A   Clear
11:14 PM -0.4 °F -14.7 °F -5.8 °F 78% 30.03 in 10.0 mi WNW 8.1 mph - N/A   Clear
11:34 PM -0.4 °F -19.2 °F -5.8 °F 78% 30.04 in 10.0 mi NNW 13.8 mph 19.6 mph N/A   Clear
11:54 PM -2.2 °F -15.6 °F -7.6 °F 78% 30.05 in 10.0 mi NW 6.9 mph - N/A   Clear